Paducah, KY

7:17 AM CDT on June 28, 2017 (GMT -0500)
Barkley Regional

Weather History for KPAH - February, 2013

Change the Weather History Date:

Wednesday, February 13, 2013

  Actual Average Record
Temperature  
Mean Temperature 41 °F 39 °F  
Max Temperature 46 °F 48 °F 78 °F (1962)
Min Temperature 36 °F 29 °F 0 °F (1986)
Degree Days  
Heating Degree Days 24 26  
Month to date heating degree days 330 362  
Since 1 July heating degree days 2703 2935  
Cooling Degree Days 0 0  
Month to date cooling degree days 0 0  
Year to date cooling degree days 0 0  
Moisture  
Dew Point 35 °F    
Average Humidity 79    
Maximum Humidity 92    
Minimum Humidity 65    
Precipitation  
Precipitation 0.22 in 0.14 in 6.24 in (1989)
Month to date precipitation 1.14 1.83  
Year to date precipitation 9.19 5.51  
Snow  
Snow T in 0.10 in 2.10 in (1997)
Month to date snowfall T 1.6  
Since 1 July snowfall 6.1 6.9  
Snow Depth 0.00 in    
Sea Level Pressure  
Sea Level Pressure 29.90 in    
Wind  
Wind Speed 8 mph (WNW)    
Max Wind Speed 16 mph    
Max Gust Speed 20 mph    
Visibility 8 miles    
Events Rain    
T = Trace of Precipitation, MM = Missing Value Source: NWS Daily Summary

Daily Weather History Graph

Daily Weather History Graph

Search for Another Location

Airport or City:

Trip Planner

Search our weather history database for the weather conditions in past years. The results will help you decide how hot, cold, wet, or windy it might be!

Date:

Astronomy

Feb. 13, 2013 Rise Set
Actual Time 6:45 AM CST 5:33 PM CST
Civil Twilight 6:19 AM CST 6:00 PM CST
Nautical Twilight 5:48 AM CST 6:30 PM CST
Astronomical Twilight 5:18 AM CST 7:00 PM CST
Moon 8:21 AM CST (2/13) 9:28 PM CST (2/13)
Length of Visible Light 11h 40m
Length of Day
10h 47m
Waxing Crescent, 14% of the Moon is Illuminated
Feb 13
Waxing Crescent
Feb 17
First Quarter
Feb 25
Full
Mar 4
Last Quarter
Mar 11
New

Hourly Weather History & Observations

Time (CST) Temp. Windchill Dew Point Humidity Pressure Visibility Wind Dir Wind Speed Gust Speed Precip Events Conditions
12:53 AM 39.9 °F - 35.1 °F 83% 29.86 in 8.0 mi Calm Calm - 0.02 in Rain Light Rain
1:53 AM 39.9 °F 35.1 °F 36.0 °F 86% 29.85 in 6.0 mi North 6.9 mph - 0.04 in Rain Light Rain
2:09 AM 39.2 °F - 35.6 °F 87% 29.85 in 7.0 mi Calm Calm - 0.00 in Rain Light Rain
2:53 AM 39.9 °F 33.4 °F 35.1 °F 83% 29.86 in 7.0 mi NNW 10.4 mph - 0.03 in Rain Light Rain
3:53 AM 39.0 °F 31.8 °F 35.1 °F 86% 29.85 in 5.0 mi North 11.5 mph - 0.05 in Rain Light Rain
4:53 AM 37.9 °F 30.5 °F 35.1 °F 89% 29.84 in 6.0 mi North 11.5 mph - 0.05 in Rain Light Rain
5:14 AM 37.4 °F 29.8 °F 33.8 °F 87% 29.83 in 7.0 mi North 11.5 mph - 0.00 in Rain Light Rain
5:29 AM 37.4 °F 29.8 °F 35.6 °F 93% 29.84 in 7.0 mi North 11.5 mph - 0.01 in Rain Light Rain
5:53 AM 37.0 °F 29.8 °F 35.1 °F 93% 29.84 in 7.0 mi North 10.4 mph - 0.01 in   Overcast
6:08 AM 37.4 °F 30.3 °F 33.8 °F 87% 29.85 in 6.0 mi North 10.4 mph - 0.00 in Rain Light Rain
6:53 AM 36.0 °F 28.5 °F 34.0 °F 93% 29.87 in 6.0 mi North 10.4 mph - 0.00 in   Overcast
7:51 AM 35.6 °F 29.2 °F 33.8 °F 93% 29.87 in 5.0 mi North 8.1 mph - 0.02 in   Overcast
7:53 AM 36.0 °F 30.3 °F 34.0 °F 93% 29.88 in 5.0 mi North 6.9 mph - 0.02 in   Overcast
8:53 AM 37.0 °F 31.0 °F 35.1 °F 93% 29.91 in 5.0 mi NNW 8.1 mph - 0.00 in Rain Light Rain
9:53 AM 37.0 °F 31.6 °F 35.1 °F 93% 29.94 in 6.0 mi NNW 6.9 mph - 0.01 in Rain Light Rain
10:53 AM 39.0 °F 34.0 °F 36.0 °F 89% 29.95 in 6.0 mi NW 6.9 mph - 0.00 in   Overcast
11:14 AM 39.2 °F 35.9 °F 35.6 °F 87% 29.95 in 7.0 mi NW 4.6 mph - N/A   Overcast
11:38 AM 41.0 °F 38.0 °F 35.6 °F 81% 29.93 in 8.0 mi West 4.6 mph - N/A   Overcast
11:53 AM 42.1 °F 40.2 °F 36.0 °F 79% 29.93 in 10.0 mi WSW 3.5 mph - N/A   Overcast
12:53 PM 43.0 °F 39.5 °F 35.1 °F 74% 29.92 in 10.0 mi West 5.8 mph - N/A   Overcast
1:10 PM 44.6 °F 40.2 °F 35.6 °F 71% 29.91 in 10.0 mi WSW 8.1 mph - N/A   Overcast
1:42 PM 46.4 °F 41.5 °F 37.4 °F 71% 29.90 in 10.0 mi WSW 10.4 mph - N/A   Mostly Cloudy
1:53 PM 45.0 °F 41.8 °F 36.0 °F 71% 29.91 in 10.0 mi WSW 5.8 mph - N/A   Mostly Cloudy
2:37 PM 44.6 °F 38.8 °F 35.6 °F 71% 29.90 in 10.0 mi West 11.5 mph - N/A   Scattered Clouds
2:53 PM 46.0 °F 41.4 °F 36.0 °F 68% 29.90 in 10.0 mi West 9.2 mph - N/A   Scattered Clouds
3:53 PM 45.0 °F 39.7 °F 35.1 °F 68% 29.91 in 10.0 mi WSW 10.4 mph - N/A   Partly Cloudy
4:53 PM 44.1 °F 38.1 °F 34.0 °F 68% 29.91 in 10.0 mi SW 11.5 mph - N/A   Partly Cloudy
5:53 PM 41.0 °F 37.1 °F 34.0 °F 76% 29.91 in 10.0 mi SSW 5.8 mph - N/A   Clear
6:53 PM 39.9 °F 36.7 °F 34.0 °F 79% 29.93 in 10.0 mi SSW 4.6 mph - N/A   Clear
7:53 PM 39.9 °F 34.5 °F 35.1 °F 83% 29.93 in 10.0 mi SSW 8.1 mph - N/A   Clear
8:53 PM 39.9 °F 33.4 °F 35.1 °F 83% 29.94 in 10.0 mi SSW 10.4 mph - N/A   Clear
9:53 PM 39.0 °F 32.3 °F 36.0 °F 89% 29.94 in 10.0 mi SSW 10.4 mph - N/A   Clear
10:53 PM 39.0 °F 32.3 °F 35.1 °F 86% 29.95 in 10.0 mi SW 10.4 mph - N/A   Clear
11:53 PM 37.9 °F 32.1 °F 35.1 °F 89% 29.96 in 10.0 mi SSW 8.1 mph - N/A   Clear